• Join FlightAware (Why Join?)
  • Login
  • US Flag 
01:32AM EDT


 

Airport Tracker/Info


-or-


 

Live Flight TrackerFlight Track Log ✈ N96CB ✈ 05-Jan-2014 ✈ KDHN - KPMP

Flight Track Log - Related Links

Times and Time Zones

All times are in EST time to prevent confusion due to time zone crossing. See the N96CB flight status page for this flight to view local times or setup timezone preferences in your user account.

Time Position Orientation Groundspeed Altitude Reporting Facility
EST Latitude Longitude Course Direction KTS MPH feet Rate Location/Type
02:31PM 31.3203 -85.4508 137° Southeast 79 91 700  Level Jacksonville Center
02:32PM 31.2997 -85.4283 137° Southeast 84 97 1,600 660 Climbing Jacksonville Center
02:33PM 31.2836 -85.4036 127° Southeast 84 97 2,200 540 Climbing Jacksonville Center
02:34PM 31.2694 -85.3839 130° Southeast 87 100 2,800 540 Climbing Jacksonville Center
02:35PM 31.2508 -85.3639 137° Southeast 87 100 3,400 540 Climbing Jacksonville Center
02:36PM 31.2325 -85.3464 141° Southeast 88 101 3,900 540 Climbing Jacksonville Center
02:37PM 31.2100 -85.3217 137° Southeast 88 101 4,600 540 Climbing Jacksonville Center
02:38PM 31.1936 -85.3042 138° Southeast 87 100 5,100 480 Climbing Jacksonville Center
02:39PM 31.1772 -85.2917 147° Southeast 83 96 5,500 540 Climbing Jacksonville Center
02:40PM 31.1567 -85.2742 144° Southeast 80 92 6,200 480 Climbing Jacksonville Center
02:41PM 31.1403 -85.2567 138° Southeast 82 94 6,600 420 Climbing Jacksonville Center
02:42PM 31.1239 -85.2417 142° Southeast 85 98 7,000 420 Climbing Jacksonville Center
02:43PM 31.1053 -85.2242 141° Southeast 86 99 7,400 420 Climbing Jacksonville Center
02:44PM 31.0889 -85.2092 142° Southeast 85 98 7,900 180 Climbing Jacksonville Center
02:46PM 31.0292 -85.1739 153° Southeast 145 167 8,000  Climbing Jacksonville Center
02:47PM 30.9983 -85.1417 138° Southeast 162 186 7,900 -60 Descending Jacksonville Center
02:48PM 30.9675 -85.1069 136° Southeast 154 177 7,900  Level Jacksonville Center
02:49PM 30.9367 -85.0797 143° Southeast 146 168 7,900  Level Jacksonville Center
03:14PM 30.1828 -84.3775 142° Southeast 167 192 9,200 60 Climbing Jacksonville Center
03:15PM 30.1326 -84.3226 141° Southeast  Level FlightAware Approximate
03:15PM 30.1642 -84.3483 126° Southeast 157 181 10,100  Level Jacksonville Center
03:16PM 30.1019 -84.2940 141° Southeast  Level FlightAware Approximate
03:16PM 30.1458 -84.3267 134° Southeast 122 140 10,400  Level Jacksonville Center
03:17PM 30.0713 -84.2655 141° Southeast  Level FlightAware Approximate
03:17PM 30.1250 -84.3069 141° Southeast 105 121 10,700  Level Jacksonville Center
03:18PM 30.0406 -84.2370 141° Southeast  Level FlightAware Approximate
03:18PM 30.1022 -84.2875 144° Southeast 100 115 11,100  Level Jacksonville Center
03:19PM 30.0095 -84.2086 142° Southeast  Level FlightAware Approximate
03:19PM 30.0797 -84.2631 137° Southeast 106 122 11,200  Level Jacksonville Center
03:20PM 30.0528 -84.2292 133° Southeast 117 135 11,000 -120 Descending Jacksonville Center
03:21PM 30.0281 -84.1953 130° Southeast 130 150 11,000  Level Jacksonville Center
03:22PM 30.0075 -84.1639 127° Southeast 141 162 11,000  Level Jacksonville Center
03:23PM 29.9808 -84.1300 132° Southeast 136 157 11,000  Level Jacksonville Center
03:24PM 29.9561 -84.0936 128° Southeast 136 157 11,000  Level Jacksonville Center
03:25PM 29.9272 -84.0597 135° Southeast 141 162 11,000  Level Jacksonville Center
03:26PM 29.9025 -84.0233 128° Southeast 141 162 11,000  Level Jacksonville Center
03:27PM 29.8778 -83.9897 130° Southeast 141 162 11,000  Level Jacksonville Center
03:28PM 29.8508 -83.9558 133° Southeast 141 162 11,000  Level Jacksonville Center
03:29PM 29.8239 -83.9197 131° Southeast 141 162 11,000  Level Jacksonville Center
03:30PM 29.7969 -83.8858 132° Southeast 146 168 11,000  Level Jacksonville Center
03:31PM 29.7703 -83.8497 130° Southeast 146 168 11,000  Level Jacksonville Center
03:32PM 29.7456 -83.8136 128° Southeast 146 168 11,000  Level Jacksonville Center
03:33PM 29.7164 -83.7797 135° Southeast 146 168 11,000  Level Jacksonville Center
03:34PM 29.6894 -83.7461 133° Southeast 146 168 11,000  Level Jacksonville Center
03:35PM 29.6625 -83.7100 131° Southeast 146 168 11,000  Level Jacksonville Center
03:36PM 29.6358 -83.6714 128° Southeast 146 168 11,000  Level Jacksonville Center
03:37PM 29.6089 -83.6403 135° Southeast 146 168 11,000  Level Jacksonville Center
03:38PM 29.5819 -83.6019 129° Southeast 146 168 11,000  Level Jacksonville Center
03:39PM 29.5550 -83.5658 131° Southeast 146 168 11,000  Level Jacksonville Center
03:40PM 29.5281 -83.5297 131° Southeast 146 168 11,000  Level Jacksonville Center
03:41PM 29.5011 -83.4914 129° Southeast 146 168 11,000  Level Jacksonville Center
03:42PM 29.4742 -83.4531 129° Southeast 146 168 11,000  Level Jacksonville Center
03:43PM 29.4469 -83.4150 129° Southeast 146 168 11,000  Level Jacksonville Center
03:44PM 29.4200 -83.3767 129° Southeast 146 168 11,000  Level Jacksonville Center
03:45PM 29.3931 -83.3406 131° Southeast 151 174 11,000  Level Jacksonville Center
03:46PM 29.3661 -83.3025 129° Southeast 151 174 11,000  Level Jacksonville Center
03:47PM 29.3350 -83.2619 131° Southeast 151 174 11,000  Level Jacksonville Center
03:48PM 29.3100 -83.2258 128° Southeast 151 174 11,000  Level Jacksonville Center
03:49PM 29.2828 -83.1878 129° Southeast 151 174 11,000  Level Jacksonville Center
03:50PM 29.2558 -83.1519 131° Southeast 151 174 11,000  Level Jacksonville Center
03:51PM 29.2286 -83.1161 131° Southeast 151 174 11,000  Level Jacksonville Center
03:52PM 29.2039 -83.0828 130° Southeast 151 174 11,000  Level Jacksonville Center
03:53PM 29.1767 -83.0447 129° Southeast 151 174 11,000 -60 Level Jacksonville Center
03:54PM 29.1433 -83.0019 132° Southeast 149 171 10,900 -60 Descending Jacksonville Center
03:55PM 29.1225 -82.9733 130° Southeast 151 174 10,900 -240 Level Jacksonville Center
03:55PM 29.1203 -82.9711 139° Southeast 152 175 10,700 -300 Descending Jacksonville Center
03:56PM 29.0933 -82.9353 131° Southeast 151 174 10,600 -240 Descending Jacksonville Center
03:56PM 29.0892 -82.9331 155° Southeast 158 182 10,500 -240 Descending Jacksonville Center
03:57PM 29.0619 -82.8972 131° Southeast 151 174 10,400 -300 Descending Jacksonville Center
03:57PM 29.0597 -82.8950 139° Southeast 162 186 10,200 -300 Descending Jacksonville Center
03:58PM 29.0328 -82.8594 131° Southeast 151 174 10,100 -300 Descending Jacksonville Center
03:58PM 29.0286 -82.8544 134° Southeast 164 189 9,900 -300 Descending Jacksonville Center
03:59PM 29.0014 -82.8214 133° Southeast 157 181 9,800 -300 Descending Jacksonville Center
03:59PM 28.9908 -82.8119 142° Southeast 164 189 9,600 -300 Descending Jacksonville Center
04:00PM 28.9700 -82.7833 130° Southeast 157 181 9,500 -240 Descending Jacksonville Center
04:00PM 28.9597 -82.7764 149° Southeast 166 191 9,400 -240 Descending Jacksonville Center
04:01PM 28.9386 -82.7456 128° Southeast 162 186 9,300 -240 Descending Jacksonville Center
04:01PM 28.9325 -82.7361 126° Southeast 165 190 9,200 -240 Descending Jacksonville Center
04:02PM 28.9072 -82.7053 133° Southeast 162 186 9,100 -240 Descending Jacksonville Center
04:02PM 28.8969 -82.6933 135° Southeast 167 192 9,000 -240 Descending Jacksonville Center
04:03PM 28.8781 -82.6672 130° Southeast 162 186 8,900  Descending Jacksonville Center
04:03PM 28.8656 -82.6531 135° Southeast 165 190 9,000 60 Climbing Jacksonville Center
04:04PM 28.8508 -82.6272 123° Southeast 162 186 9,000  Level Jacksonville Center
04:06PM 28.7833 -82.5500 135° Southeast 151 174 9,100  Climbing Tampa TRACON
04:07PM 28.7500 -82.5167 139° Southeast 149 171 9,100  Level Tampa TRACON
04:08PM 28.7167 -82.4833 139° Southeast 142 163 9,100  Level Tampa TRACON
04:09PM 28.6833 -82.4667 156° South 142 163 9,100 -60 Level Tampa TRACON
04:10PM 28.6500 -82.4333 139° Southeast 144 166 9,000 -60 Descending Tampa TRACON
04:11PM 28.6333 -82.4167 139° Southeast 147 169 9,000  Level Tampa TRACON
04:12PM 28.6000 -82.3667 127° Southeast 145 167 9,000  Level Tampa TRACON
04:13PM 28.5667 -82.3500 156° South 145 167 9,000  Level Tampa TRACON
04:14PM 28.5333 -82.3167 139° Southeast 146 168 9,100  Climbing Tampa TRACON
04:15PM 28.5000 -82.2833 139° Southeast 147 169 9,100  Level Tampa TRACON
04:16PM 28.4667 -82.2500 139° Southeast 145 167 9,100 -60 Level Tampa TRACON
04:17PM 28.4333 -82.2167 139° Southeast 146 168 9,000  Descending Tampa TRACON
04:18PM 28.4000 -82.2000 156° South 146 168 9,100  Climbing Tampa TRACON
04:19PM 28.3833 -82.1667 120° Southeast 146 168 9,000 -60 Descending Tampa TRACON
04:20PM 28.3500 -82.1500 156° South 141 162 9,000  Level Tampa TRACON
04:21PM 28.3000 -82.1167 150° Southeast 141 162 9,000  Level Tampa TRACON
04:22PM 28.2667 -82.1000 156° South 134 154 9,000  Level Tampa TRACON
04:23PM 28.2333 -82.1000 180° South 134 154 9,100  Climbing Tampa TRACON
04:24PM 28.2000 -82.0833 156° South 134 154 9,100 -60 Level Tampa TRACON
04:25PM 28.1667 -82.0667 156° South 134 154 9,000 -60 Descending Tampa TRACON
04:26PM 28.1333 -82.0667 180° South 134 154 9,000  Level Tampa TRACON
04:27PM 28.1000 -82.0500 156° South 134 154 9,100  Climbing Tampa TRACON
04:28PM 28.0667 -82.0333 156° South 136 157 9,000  Descending Tampa TRACON
04:29PM 28.0333 -82.0167 156° South 134 154 9,100  Climbing Tampa TRACON
04:30PM 27.9833 -82.0167 180° South 136 157 9,000 -120 Descending Tampa TRACON
04:31PM 27.9667 -81.9833 120° Southeast 147 169 8,900 -240 Descending Tampa TRACON
04:32PM 27.9333 -81.9667 156° South 154 177 8,600 -300 Descending Tampa TRACON
04:34PM 27.8514 -81.8917 141° Southeast 130 150 8,000 -300 Descending Miami Center
04:35PM 27.8128 -81.8617 146° Southeast 155 178 7,700 -300 Descending Miami Center
04:36PM 27.7847 -81.8322 137° Southeast 165 190 7,500 -180 Descending Miami Center
04:37PM 27.7525 -81.7958 135° Southeast 159 183 7,400 -300 Descending Miami Center
04:38PM 27.7164 -81.7589 138° Southeast 159 183 7,000 -180 Descending Miami Center
04:39PM 27.6839 -81.7247 137° Southeast 159 183 7,100  Climbing Miami Center
04:40PM 27.6558 -81.6908 133° Southeast 159 183 7,100 -60 Level Miami Center
04:41PM 27.6258 -81.6544 133° Southeast 159 183 7,000 -60 Descending Miami Center
04:42PM 27.5978 -81.6228 135° Southeast 159 183 7,000 -60 Level Miami Center
04:43PM 27.5675 -81.5886 135° Southeast 159 183 6,900  Descending Miami Center
04:44PM 27.5350 -81.5592 141° Southeast 159 183 7,000 180 Climbing Miami Center
04:45PM 27.5067 -81.5322 140° Southeast 148 170 7,300 180 Climbing Miami Center
04:46PM 27.4764 -81.5053 142° Southeast 143 165 7,400  Climbing Miami Center
04:47PM 27.4439 -81.4783 144° Southeast 148 170 7,400  Level Miami Center
04:48PM 27.4114 -81.4489 141° Southeast 148 170 7,400  Level Miami Center
04:49PM 27.3808 -81.4219 142° Southeast 148 170 7,400  Level Miami Center
04:50PM 27.3506 -81.3858 133° Southeast 148 170 7,400 -300 Level Miami Center
04:51PM 27.3228 -81.3450 127° Southeast 158 182 6,800 -600 Descending Miami Center
04:52PM 27.2928 -81.2994 127° Southeast 174 200 6,300 -420 Descending Miami Center
04:53PM 27.2650 -81.2564 126° Southeast 184 212 6,000 -300 Descending Miami Center
04:54PM 27.2325 -81.2269 141° Southeast 173 199 5,800 -300 Descending Miami Center
04:55PM 27.1978 -81.1953 141° Southeast 168 193 5,500 -180 Descending Miami Center
04:56PM 27.1592 -81.1658 146° Southeast 158 182 5,500  Level Miami Center
04:57PM 27.1244 -81.1414 148° Southeast 158 182 5,500  Level Miami Center
04:58PM 27.0872 -81.1236 157° South 150 173 5,500  Level Miami Center
04:59PM 27.0544 -81.1036 151° Southeast 150 173 5,500  Level Miami Center
05:00PM 27.0197 -81.0814 150° Southeast 150 173 5,500  Level Miami Center
05:01PM 26.9808 -81.0544 148° Southeast 145 167 5,500  Level Miami Center
05:02PM 26.9564 -81.0303 139° Southeast 145 167 5,500  Level Miami Center
05:03PM 26.9306 -80.9875 124° Southeast 145 167 5,500  Level Miami Center
05:04PM 26.9003 -80.9514 133° Southeast 155 178 5,500  Level Miami Center
05:05PM 26.8700 -80.9086 128° Southeast 155 178 5,500  Level Miami Center
05:06PM 26.8419 -80.8703 129° Southeast 160 184 5,500  Level Miami Center
05:07PM 26.8136 -80.8344 132° Southeast 160 184 5,500 -60 Level Miami Center
05:08PM 26.7875 -80.7986 129° Southeast 160 184 5,400 -240 Descending Miami Center
05:09PM 26.7572 -80.7628 133° Southeast 160 184 5,100 -300 Descending Miami Center
05:10PM 26.7164 -80.7194 137° Southeast 171 197 4,800 -300 Descending Miami Center
05:11PM 26.6861 -80.6789 130° Southeast 171 197 4,500 -300 Descending Miami Center
05:12PM 26.6558 -80.6408 132° Southeast 171 197 4,200 -360 Descending Miami Center
05:13PM 26.6214 -80.6025 135° Southeast 171 197 3,800 -360 Descending Miami Center
05:14PM 26.5825 -80.5733 146° Southeast 165 190 3,500 -360 Descending Miami Center
05:14PM 26.5642 -80.5589 145° Southeast 166 191 3,300 -300 Descending Miami Center
05:15PM 26.5456 -80.5444 145° Southeast 165 190 3,200 -300 Descending Miami Center
05:16PM 26.5189 -80.5297 154° Southeast 160 184 3,000 -240 Descending Miami Center
05:16PM 26.5067 -80.5200 145° Southeast 165 190 3,000  Level Miami Center
05:17PM 26.4817 -80.5100 160° South 153 176 3,000  Level Miami Center
05:17PM 26.4694 -80.4956 133° Southeast 160 184 3,000 -120 Level Miami Center
05:18PM 26.4469 -80.4786 146° Southeast 146 168 2,900 -120 Descending Miami Center
05:18PM 26.4411 -80.4669 119° Southeast 155 178 2,900 -240 Level Miami Center
05:19PM 26.4144 -80.4406 138° Southeast 157 181 2,700 -240 Descending Miami Center
05:19PM 26.4106 -80.4311 115° Southeast 160 184 2,700 -300 Level Miami Center
05:20PM 26.3947 -80.4006 120° Southeast 163 188 2,400 -360 Descending Miami Center
05:21PM 26.3811 -80.3514 107° East 159 183 2,100 -240 Descending Miami Center
05:22PM 26.3717 -80.3072 103° East 147 169 2,000 -60 Descending Miami Center
05:23PM 26.3561 -80.2650 112° Southeast 138 159 2,000  Level Miami Center
05:24PM 26.3444 -80.2275 109° East 129 148 2,000  Level Miami Center
05:26PM 26.3011 -80.1682 129° Southeast  Level FlightAware Approximate
05:33PM 26.2471 -80.1111 138° Southeast  Level Estimated